Regional Weather Roundup
Issued by NWS

Home | Current Version | Previous Version | Text Only | Print | Product List | Glossary Off
Versions: 1 2 3 4 5 6 7 8 9 10 11 12 13 14 15 16 17 18 19 20 21 22 23 24 25 26 27 28 29 30 31 32 33 34 35 36 37 38 39 40 41 42 43 44 45 46 47 48 49 50

000
ASUS43 KLOT 102108
RWRIL

ILLINOIS REGIONAL WEATHER ROUNDUP
NATIONAL WEATHER SERVICE CHICAGO/ROMEOVILLE IL
300 PM CST SAT DEC 10 2016

NOTE: "FAIR" INDICATES FEW OR NO CLOUDS BELOW 12,000 FEET WITH NO
SIGNIFICANT WEATHER AND/OR OBSTRUCTIONS TO VISIBILITY.

* THESE STATIONS ARE NOT UNDER NWS QUALITY CONTROL. THEY ALSO MAY NOT
  REPORT WEATHER SUCH AS PRECIPITATION OR FOG.

ILZ001-002-007-009-015-016-024-102200-
NORTHWEST ILLINOIS

CITY           SKY/WX    TMP DP  RH WIND       PRES   REMARKS
MOLINE         LGT SNOW  24  19  81 SE6       30.38F VSB 3/4 WCI  17
STERLING*      LGT SNOW  24  19  81 VRB5      30.41S WCI  18
SAVANNA*       LGT SNOW  23  20  87 S7        30.40S WCI  15
$$

ILZ003-004-008-010-011-017-018-102200-
NORTH CENTRAL ILLINOIS

CITY           SKY/WX    TMP DP  RH WIND       PRES   REMARKS
ROCKFORD       LGT SNOW  23  16  74 S10       30.41F WCI  12
FREEPORT*      LGT SNOW  21  16  81 S8        30.40S WCI  11
ROCHELLE*      LGT SNOW  22  17  80 S8        30.41S WCI  13
DE KALB*       LGT SNOW  22  16  80 S8        30.40S WCI  12
$$

ILZ005-006-012>014-019>023-102200-
NORTHEAST ILLINOIS

CITY           SKY/WX    TMP DP  RH WIND       PRES   REMARKS
CHICAGO-OHARE  CLOUDY    23  13  65 SW7       30.41F WCI  15
CHICAGO-MIDWAY CLOUDY    25  13  60 SW6       30.42F WCI  18
AURORA         LGT SNOW  24  16  71 S7        30.42S WCI  16
LANSING*       CLOUDY    24  17  74 SW6       30.44S WCI  17
JOLIET*        CLOUDY    26  17  68 SW3       30.43S
WAUKEGAN       CLOUDY    23  14  68 SW8       30.39F WCI  14
DUPAGE AIRPORT CLOUDY    23  13  65 SW6       30.40F WCI  16
KANKAKEE*      CLOUDY    26  15  63 CALM      30.44F
WHEELING       CLOUDY    23  12  62 SW6       30.43F WCI  16
MORRIS*        CLOUDY    25  16  69 CALM      30.42S
ROMEOVILLE*    CLOUDY    24  18  79 S3        30.42F
NORTHERLY ISL    N/A     24  12  60 S8          N/A  WCI  15
$$

LMZ740>746-102200-
SOUTHERN LAKE MICHIGAN

STATION/POSITION SKY/WX   TEMP    WIND        PRES    VSBY  WAVE
                          AIR SEA DIR/SP/G                  HT/PER
                          (F)     (DEG/KT/KT) (MB)    (MI)  (FT/S)
BURNHAM HARBOR             24     240/  4/  9   N/A
CALUMET HARBOR             24     200/  6/  8 1029.5F
BURNS HARBOR               25     220/  7/ 10 1030.8F
$$

ILZ025>027-034>036-040-047-049-050-058-095>099-102200-
WEST-CENTRAL ILLINOIS

CITY           SKY/WX    TMP DP  RH WIND       PRES   REMARKS
QUINCY         CLOUDY    30  16  56 SE10      30.33F WCI  21
GALESBURG*     LGT SNOW  23  20  90 SE6       30.38F WCI  16
MACOMB*        CLOUDY    27  17  68 SE15      30.38F WCI  15
JACKSONVILLE*  CLOUDY    29  15  55 SE8       30.39F WCI  21
PITTSFIELD*    CLOUDY    31  18  59 SE12      30.37F WCI  21
$$

ILZ028>032-037-038-041>044-048-051>054-059>061-102200-
CENTRAL ILLINOIS

CITY           SKY/WX    TMP DP  RH WIND       PRES   REMARKS
PONTIAC        CLOUDY    28  16  62 S9        30.43F WCI  19
BLOOMINGTON    LGT SNOW  25  16  68 S10       30.41F WCI  15
DECATUR        CLOUDY    28  15  58 S7        30.43F WCI  21
PEORIA         LGT SNOW  24  20  84 S8        30.42R VSB 1   WCI  15
LACON*         LGT SNOW  26  15  63 S7        30.41F WCI  18
LINCOLN*       CLOUDY    29  16  58 S8        30.43S WCI  21
SPRINGFIELD    CLOUDY    30  15  53 SE7       30.42F WCI  23
TAYLORVILLE    CLOUDY    29  16  58 CALM      30.43R
$$

ILZ033-039-045-046-055>057-062-063-102200-
EAST-CENTRAL ILLINOIS

CITY           SKY/WX    TMP DP  RH WIND       PRES   REMARKS
CHAMPAIGN      CLOUDY    28  15  58 S9        30.44S WCI  19
RANTOUL*       CLOUDY    29  18  63 S7        30.44S WCI  22
MATTOON        CLOUDY    28  14  55 S7        30.43F WCI  21
PARIS*         CLOUDY    28  19  69 S8        30.46F WCI  20
$$

ILZ079-100>102-102200-
SOUTHWEST ILLINOIS

CITY           SKY/WX    TMP DP  RH WIND       PRES   REMARKS
ALTON          CLOUDY    32  19  59 SE12      30.41F WCI  23
CAHOKIA*       CLOUDY    34  18  52 S6        30.42S WCI  29
SPARTA*        CLOUDY    33  19  55 S6        30.43F WCI  27
$$

ILZ064>066-069>071-074>076-080>082-084>086-088>090-092>094-102200-
SOUTH-CENTRAL ILLINOIS

CITY           SKY/WX    TMP DP  RH WIND       PRES   REMARKS
CARBONDALE     SUNNY     36  18  48 SE10      30.43F WCI  28
CAIRO*         SUNNY     38  19  46 SE7       30.45F WCI  33
EFFINGHAM*     PTSUNNY   31  19  62 SE7       30.46F WCI  24
MARION         PTSUNNY   37  18  44 S12       30.44F WCI  30
CENTRALIA*     CLOUDY    34  20  56 SE8       30.41F WCI  28
SALEM*         CLOUDY    35  18  48 SE7       30.42F WCI  29
METROPOLIS*    SUNNY     38  14  37 SE5       30.46F WCI  35
$$

ILZ067-068-072-073-078-083-087-091-102200-
SOUTHEAST ILLINOIS

CITY           SKY/WX    TMP DP  RH WIND       PRES   REMARKS
LAWRENCEVILLE  PTSUNNY   31  17  56 S6        30.48F WCI  25
FLORA*         MOSUNNY   33  19  57 SE8       30.46F WCI  26
FAIRFIELD*     PTSUNNY   34  19  54 SE5       30.45F WCI  30
HARRISBURG*    CLOUDY    35  22  57 S6        30.47S WCI  30
ROBINSON*      CLOUDY    29  18  63 SE5       30.49S WCI  24
CARMI*         CLOUDY    34  20  56 S7        30.47S WCI  28
$$

ABBREVIATIONS USED IN REMARKS
   TC - TEMPERATURE IN CELSIUS
  WCI - WIND CHILL INDEX
   HX - HEAT INDEX
  VSB - VISIBILITY
$$




USA.gov is the U.S. government's official web portal to all federal, state and local government web resources and services.